SCP
0 0 0 0 0 0 0 0 0 0 0 0 0 0 0 0 0 0 0 0 0 0 0 0 0 0 0 0 0 0 0 0 0 0 0 0 0 0 0 0 0 0 0 0
0 0 0 0 0 0 0 0 0 0 0 0 0 0 0 0 0 0 0 0 0 0 0 0 0 0 0 0 0 0 0 0 0 0 0 0 0 0 0 0 0 0 0 0
0 0 0 0 0 0 0 0 0 0 0 0 0 0 0 0 0 0 0 0 0 0 0 0 0 0 0 0 0 0 0 0 0 0 0 0 0 0 0 0 0 0 0 0
0 0 0 0 0 0 0 0 0 0 0 0 0 0 0 0 0 0 0 0 0 0 0 0 0 0 0 0 0 0 0 0 0 0 0 0 0 0 0 0 0 0 0 0
0 0 0 0 0 0 0 0 0 0 0 0 0 0 0 0 0 0 0 0 0 0 0 0 0 0 0 0 0 0 0 0 0 0 0 0 0 0 0 0 0 0 0 0
0 0 0 0 0 0 0 0 0 0 0 0 0 0 0 0 0 0 0 0 0 0 0 0 0 0 0 0 0 0 0 0 0 0 0 0 0 0 0 0 0 0 0 0
0 0 0 0 0 0 0 0 0 0 0 0 0 0 0 0 0 0 0 0 0 0 0 0 0 0 0 0 0 0 0 0 0 0 0 0 0 0 0 0 0 0 0 0
0 0 0 0 0 0 0 0 0 0 0 0 0 0 0 0 0 0 0 0 0 0 0 0 0 0 0 0 0 0 0 0 0 0 0 0 0 0 0 0 0 0 0 0
0 0 0 0 0 0 0 0 0 0 0 0 0 0 0 0 0 0 0 0 0 0 0 0 0 0 0 0 0 0 0 0 0 0 0 0 0 0 0 0 0 0 0 0
0 0 0 0 0 0 0 0 0 0 0 0 0 0 0 0 0 0 0 0 0 0 0 0 0 0 0 0 0 0 0 0 0 0 0 0 0 0 0 0 0 0 0 0
0 0 0 0 0 0 0 0 0 0 0 0 0 0 0 0 0 0 0 0 0 0 0 0 0 0 0 0 0 0 0 0 0 0 0 0 0 0 0 0 0 0 0 0
0 0 0 0 0 0 0 0 0 0 0 0 0 0 0 0 0 0 0 0 0 0 0 0 0 0 0 0 0 0 0 0 0 0 0 0 0 0 0 0 0 0 0 0
0 0 0 0 0 0 0 0 0 0 0 0 0 0 0 0 0 0 0 0 0 0 0 0 0 0 0 0 0 0 0 0 0 0 0 0 0 0 0 0 0 0 0 0
0 0 0 0 0 0 0 0 0 0 0 0 0 0 0 0 0 0 0 0 0 0 0 0 0 0 0 0 0 0 0 0 0 0 0 0 0 0 0 0 0 0 0 0
0 0 0 0 0 0 0 0 0 0 0 0 0 0 0 0 0 0 0 0 0 0 0 0 0 0 0 0 0 0 0 0 0 0 0 0 0 0 0 0 0 0 0 0
0 0 0 0 0 0 0 0 0 0 0 0 0 0 0 0 0 0 0 0 0 0 0 0 0 0 0 0 0 0 0 0 0 0 0 0 0 0 0 0 0 0 0 0
0 0 0 0 0 0 0 0 0 0 0 0 0 0 0 0 0 0 0 0 0 0 0 0 0 0 0 0 0 0 0 0 0 0 0 0 0 0 0 0 0 0 0 0
0 0 0 0 0 0 0 0 0 0 0 0 0 0 0 0 0 0 0 0 0 0 0 0 0 0 0 0 0 0 0 0 0 0 0 0 0 0 0 0 0 0 0 0
0 0 0 0 0 0 0 0 0 0 0 0 0 0 0 0 0 0 0 0 0 0 0 0 0 0 0 0 0 0 0 0 0 0 0 0 0 0 0 0 0 0 0 0
0 0 0 0 0 0 0 0 0 0 0 0 0 0 0 0 0 0 0 0 0 0 0 0 0 0 0 0 0 0 0 0 0 0 0 0 0 0 0 0 0 0 0 0
0 0 0 0 0 0 0 0 0 0 0 0 0 0 0 0 0 0 0 0 0 0 0 0 0 0 0 0 0 0 0 0 0 0 0 0 0 0 0 0 0 0 0 0
0 0 0 0 0 0 0 0 0 0 0 0 0 0 0 0 0 0 0 0 0 0 0 0 0 0 0 0 0 0 0 0 0 0 0 0 0 0 0 0 0 0 0 0
0 0 0 0 0 0 0 0 0 0 0 0 0 0 0 0 0 0 0 0 0 0 0 0 0 0 0 0 0 0 0 0 0 0 0 0 0 0 0 0 0 0 0 0
0 0 0 0 0 0 0 0 0 0 0 0 0 0 0 0 0 0 0 0 0 0 0 0 0 0 0 0 0 0 0 0 0 0 0 0 0 0 0 0 0 0 0 0
0 0 0 0 0 0 0 0 0 0 0 0 0 0 0 0 0 0 0 0 0 0 0 0 0 0 0 0 0 0 0 0 0 0 0 0 0 0 0 0 0 0 0 0
0 0 0 0 0 0 0 0 0 0 0 0 0 0 0 0 0 0 0 0 0 0 0 0 0 0 0 0 0 0 0 0 0 0 0 0 0 0 0 0 0 0 0 0
0 0 0 0 0 0 0 0 0 0 0 0 0 0 0 0 0 0 0 0 0 0 0 0 0 0 0 0 0 0 0 0 0 0 0 0 0 0 0 0 0 0 0 0
Wind_Speed
7 5 3 6 7 7 9 8 9 10 7 7 10 11 9 7 6 4 2 1 3 5 5 6 7 7 8 8 8 9 9 10 11 11 11 11 11 11 12 12 14 14 15 16
5 3 4 6 8 7 8 7 9 10 10 2 7 7 7 7 6 4 2 1 3 4 6 6 7 7 8 8 8 8 9 10 11 11 11 11 11 11 12 13 13 14 14 16
5 7 6 8 6 8 7 9 9 9 7 9 6 10 10 8 6 5 3 2 3 3 4 5 6 7 7 8 8 8 9 10 11 11 11 11 12 12 12 11 12 13 14 15
3 7 5 7 2 6 7 8 9 6 6 10 8 7 5 6 7 6 4 2 1 2 4 4 5 6 6 7 7 8 8 9 10 10 10 10 10 10 10 8 9 10 12 14
1 3 12 9 4 5 5 9 7 8 8 8 11 7 2 5 6 6 4 3 1 1 2 4 5 6 6 6 7 8 9 10 10 9 10 10 10 10 8 7 7 9 10 12
3 2 8 7 2 2 3 8 5 10 13 12 11 5 6 9 7 6 5 3 2 0 2 3 5 5 6 7 7 8 10 10 10 9 9 9 9 8 7 7 8 9 10 10
5 6 14 6 5 5 3 8 5 10 13 15 11 6 8 11 7 6 5 4 2 1 2 3 4 5 5 6 8 9 9 9 9 9 9 8 8 7 7 8 8 8 9 9
5 5 14 6 9 11 11 3 6 8 9 9 7 9 11 10 8 7 6 4 3 2 2 3 4 4 5 6 7 8 8 8 9 8 8 9 8 8 7 6 6 6 6 8
13 13 6 11 11 7 6 7 7 8 7 11 11 9 10 9 8 7 6 4 3 2 2 3 4 3 4 6 7 7 8 8 8 8 7 7 6 7 7 6 4 5 5 6
8 14 9 10 7 5 7 7 8 8 11 11 11 11 10 10 8 7 6 4 3 2 2 2 4 4 4 6 6 6 7 8 7 6 7 6 6 6 6 6 5 5 6 6
9 11 6 7 10 9 7 7 8 8 8 11 14 11 10 10 9 7 6 4 4 3 1 1 3 4 5 5 6 6 7 7 7 7 7 6 6 6 7 5 9 7 5 4
13 11 9 8 8 12 12 11 13 11 9 8 11 13 11 10 8 7 6 5 4 3 1 1 2 4 5 5 5 5 6 6 5 5 6 6 6 7 12 13 16 16 15 12
8 3 6 2 7 12 12 14 13 13 14 11 9 10 12 9 8 7 6 6 5 4 2 1 2 3 4 5 6 5 5 6 5 6 6 7 7 7 8 11 15 15 16 16
6 5 4 6 8 10 10 11 10 8 8 11 11 10 10 8 7 8 7 6 5 4 3 2 2 3 4 5 5 5 5 7 7 4 5 6 6 6 7 8 9 8 11 15
10 10 7 6 9 9 11 11 11 10 10 9 8 10 11 10 10 8 7 6 5 4 4 2 2 3 4 5 5 5 5 5 5 4 5 5 6 6 7 7 8 8 8 9
6 6 7 9 13 13 12 13 14 15 13 12 11 11 11 9 8 7 7 6 6 5 5 4 4 4 4 4 5 4 4 10 9 5 5 6 5 6 7 8 8 8 9 9
11 10 11 11 15 15 17 16 17 17 15 15 14 12 10 9 7 7 7 6 6 5 5 5 4 3 4 4 4 4 4 6 10 6 4 5 5 5 6 7 8 9 8 12
17 15 16 16 19 18 17 14 13 16 16 15 13 12 13 13 13 10 8 6 4 4 5 6 5 4 4 4 3 2 3 3 4 4 4 5 5 5 6 7 8 9 8 10
14 12 13 14 17 18 17 17 16 14 13 14 16 16 14 12 9 8 7 7 7 6 5 6 7 4 3 4 3 1 2 3 4 4 4 7 6 5 6 6 7 8 8 9
12 11 13 12 14 14 15 14 14 13 13 15 14 13 11 10 9 9 8 7 7 5 5 6 5 4 4 4 1 1 2 3 3 4 4 4 5 6 6 7 8 8 8 9
14 13 14 14 14 13 14 16 16 16 15 16 17 16 14 12 10 9 8 7 6 7 7 8 5 4 4 3 2 1 1 2 3 3 4 5 5 6 6 7 8 9 9 10
14 15 15 15 15 14 13 14 14 16 16 15 14 12 12 12 11 9 7 6 5 11 8 5 4 6 7 4 3 2 1 1 2 3 3 4 5 6 7 8 8 8 9 9
12 13 15 15 15 13 12 13 14 16 17 17 17 17 16 13 12 11 9 8 6 11 8 5 8 11 9 4 3 3 2 1 2 2 3 3 4 5 6 7 7 8 8 9
13 14 13 12 13 14 15 15 13 12 13 13 13 14 14 11 9 8 3 11 17 14 8 9 13 12 9 4 4 3 3 2 2 2 2 3 3 4 5 6 7 7 8 10
14 14 15 17 16 14 14 13 12 10 11 8 9 10 10 9 8 9 7 8 15 14 7 10 14 13 7 4 4 4 4 3 3 2 2 3 3 4 5 5 6 8 8 9
13 14 13 13 11 10 11 12 12 11 11 11 10 10 9 7 6 7 8 9 11 13 8 6 6 7 5 5 5 5 4 4 2 2 3 3 4 4 5 6 8 7 8 9
10 9 9 8 8 10 11 12 13 13 13 13 12 11 11 10 9 9 10 9 9 8 7 6 6 5 5 5 5 5 4 4 4 3 3 3 3 4 5 6 6 7 8 9
Wind_Direction
263 277 265 244 229 201 195 201 217 245 241 229 186 171 168 165 167 168 175 28 16 5 351 344 340 334 331 330 333 336 335 335 332 329 327 327 327 328 331 334 337 333 333 332
295 329 309 271 247 221 221 219 236 261 269 172 125 127 149 167 174 176 170 53 19 2 351 342 336 332 333 332 333 333 333 332 330 333 333 332 332 338 339 340 338 338 337 337
291 317 340 296 243 193 213 215 205 227 226 145 152 170 174 179 181 175 150 84 22 352 335 327 326 328 331 330 328 333 332 330 331 332 334 335 340 342 341 338 339 340 340 343
317 355 290 253 182 194 220 243 217 217 169 168 154 144 151 168 173 169 146 123 13 331 323 321 324 328 326 326 330 332 331 330 331 333 333 334 339 341 336 333 338 339 340 346
89 303 281 291 231 199 213 274 213 181 147 123 119 107 186 196 174 165 152 148 173 268 293 322 332 331 332 333 334 335 337 335 333 334 334 337 341 339 334 332 336 338 342 345
140 228 256 255 165 134 84 279 217 159 154 153 152 174 215 179 163 152 146 143 149 292 341 348 336 336 342 339 340 342 339 334 333 336 334 336 339 335 333 333 343 344 342 345
184 235 264 249 155 135 196 259 166 156 159 165 186 188 151 147 152 153 146 144 138 90 24 345 334 346 348 340 340 332 330 331 334 336 333 340 336 332 332 339 340 336 337 338
163 214 259 189 148 191 215 142 140 149 153 153 143 125 136 147 153 153 149 152 145 102 29 347 348 355 346 337 324 324 328 332 332 332 337 349 331 329 331 331 330 329 333 339
192 220 237 175 198 204 153 158 163 153 147 137 140 151 155 156 158 158 160 165 157 122 51 358 352 352 339 320 320 327 330 329 325 328 329 332 326 327 332 335 331 338 338 341
245 262 245 218 226 192 177 168 161 148 147 152 153 158 159 160 162 163 167 168 158 125 69 0 341 339 320 312 320 326 327 324 324 327 329 326 332 338 336 336 336 340 339 335
254 269 286 251 215 188 164 143 138 137 150 157 151 157 164 164 167 169 168 167 158 144 126 332 329 329 322 319 322 326 321 319 323 332 325 325 335 334 339 326 349 350 329 319
231 226 204 234 200 167 157 162 157 147 146 155 159 161 161 166 166 165 167 166 164 161 159 299 321 320 316 315 317 322 326 324 318 324 327 329 323 328 342 349 351 352 349 347
224 201 192 223 164 167 166 164 162 159 159 161 161 160 160 160 165 163 166 172 176 178 190 230 302 311 311 311 314 318 318 318 314 328 326 327 329 329 328 333 342 347 348 344
207 149 186 184 178 167 154 150 145 137 146 154 155 157 158 152 158 168 178 184 182 184 190 202 278 298 301 304 311 318 317 318 326 310 315 318 319 321 322 326 328 327 334 335
211 196 195 157 139 139 139 139 142 149 150 153 157 161 164 165 174 180 181 182 181 185 188 207 260 285 295 302 314 316 319 311 308 308 315 317 320 325 327 326 326 324 323 326
171 150 141 148 159 159 156 162 168 171 168 168 171 175 176 171 167 167 177 182 181 192 200 211 242 265 286 298 311 309 308 328 336 329 323 323 324 329 335 334 333 333 334 327
158 178 177 178 179 180 183 182 179 174 173 177 180 171 160 157 164 181 192 193 194 202 206 212 228 259 282 293 297 296 305 318 337 334 319 316 321 330 332 334 335 336 335 335
201 192 181 181 182 185 187 183 176 174 178 179 164 162 170 179 187 190 184 175 188 217 227 216 219 246 266 281 282 286 306 307 310 312 315 322 339 333 329 330 331 332 333 337
203 188 181 178 178 180 181 181 180 176 168 161 168 178 185 188 184 172 163 171 191 213 219 201 217 226 258 279 308 265 315 314 317 321 320 337 345 330 330 332 331 330 333 341
193 180 174 172 171 173 177 176 170 168 168 167 170 173 182 188 178 169 171 192 206 200 182 191 208 220 241 265 289 203 313 316 321 326 329 333 334 333 332 335 335 334 339 342
184 174 170 171 171 173 173 169 168 171 170 172 176 183 186 183 177 171 177 206 220 197 196 207 197 199 229 233 172 166 299 312 319 321 327 330 330 332 333 335 336 338 342 341
178 175 173 169 168 172 171 170 171 169 169 176 180 176 173 176 180 186 202 204 186 181 183 192 190 211 222 198 162 175 228 292 304 308 318 323 326 328 330 331 332 335 336 333
174 173 171 171 171 166 162 170 172 171 175 179 181 181 183 183 182 186 202 203 185 191 183 187 201 211 211 169 169 181 202 246 279 296 308 311 314 317 319 323 326 327 326 328
168 167 165 157 150 156 172 178 175 176 179 182 184 182 178 176 188 202 194 179 185 192 190 198 205 208 197 164 177 188 203 226 252 271 288 298 302 307 311 316 320 321 323 326
163 158 156 160 170 178 175 165 163 164 168 176 181 182 184 182 182 185 180 176 183 184 183 201 205 204 182 173 186 195 205 219 227 229 263 289 297 304 307 312 316 317 319 322
167 171 174 178 174 165 162 166 173 175 177 180 185 186 186 180 168 164 173 179 186 185 180 189 201 197 174 183 194 199 204 220 242 244 254 272 286 296 302 310 311 311 313 316
150 154 154 158 165 166 168 174 177 179 181 182 181 182 182 181 179 177 178 180 185 186 181 184 187 186 187 192 197 202 204 208 214 223 238 253 268 280 292 300 303 304 307 312